TimePST,TemperatureF,Dew PointF,Humidity,Sea Level PressureIn,VisibilityMPH,Wind Direction,Wind SpeedMPH,Gust SpeedMPH,PrecipitationIn,Events,Conditions,WindDirDegrees,DateUTC
12:15 AM,55.4,55.4,100,30.20,10.0,Calm,Calm,-,N/A,,Overcast,0,2012-11-04 07:15:00
12:35 AM,55.4,55.4,100,30.20,7.0,East,5.8,-,N/A,,Overcast,100,2012-11-04 07:35:00
12:55 AM,55.4,55.4,100,30.21,10.0,East,3.5,-,N/A,,Overcast,100,2012-11-04 07:55:00
1:15 AM,55.4,55.4,100,30.21,10.0,East,3.5,-,N/A,,Overcast,100,2012-11-04 08:15:00
1:35 AM,55.4,55.4,100,30.21,10.0,Calm,Calm,-,N/A,,Overcast,0,2012-11-04 08:35:00
1:55 AM,55.4,55.4,100,30.21,10.0,Calm,Calm,-,N/A,,Overcast,0,2012-11-04 08:55:00
1:15 AM,55.4,55.4,100,30.21,10.0,East,3.5,-,N/A,,Overcast,90,2012-11-04 09:15:00
1:35 AM,57.2,57.2,100,30.20,10.0,SE,3.5,-,N/A,,Overcast,140,2012-11-04 09:35:00
1:55 AM,59.0,57.2,94,30.21,10.0,Calm,Calm,-,N/A,,Overcast,0,2012-11-04 09:55:00
2:15 AM,57.2,55.4,94,30.21,10.0,South,4.6,-,N/A,,Overcast,170,2012-11-04 10:15:00
2:35 AM,59.0,57.2,94,30.22,7.0,South,8.1,-,N/A,,Overcast,180,2012-11-04 10:35:00
2:55 AM,59.0,55.4,88,30.21,7.0,South,15.0,19.6,N/A,,Overcast,180,2012-11-04 10:55:00
3:15 AM,59.0,55.4,88,30.22,5.0,South,16.1,19.6,N/A,,Overcast,190,2012-11-04 11:15:00
3:35 AM,59.0,55.4,88,30.21,5.0,South,15.0,-,N/A,,Overcast,190,2012-11-04 11:35:00
3:55 AM,59.0,55.4,88,30.22,2.5,South,13.8,20.7,N/A,,Drizzle,180,2012-11-04 11:55:00
4:15 AM,59.0,57.2,94,30.21,7.0,South,9.2,-,N/A,,Overcast,180,2012-11-04 12:15:00
4:35 AM,59.0,57.2,94,30.22,7.0,South,9.2,-,N/A,Rain,Light Rain,170,2012-11-04 12:35:00
4:55 AM,59.0,57.2,94,30.22,10.0,South,9.2,-,N/A,,Overcast,170,2012-11-04 12:55:00
5:15 AM,59.0,57.2,94,30.23,10.0,South,11.5,-,N/A,,Overcast,180,2012-11-04 13:15:00
5:35 AM,59.0,57.2,94,30.24,5.0,South,13.8,19.6,N/A,,Overcast,190,2012-11-04 13:35:00
5:55 AM,59.0,57.2,94,30.24,4.0,South,16.1,21.9,N/A,,Overcast,190,2012-11-04 13:55:00
6:15 AM,59.0,57.2,94,30.24,2.0,South,15.0,24.2,N/A,,Overcast,190,2012-11-04 14:15:00
6:35 AM,59.0,57.2,94,30.25,1.5,South,16.1,23.0,N/A,,Drizzle,190,2012-11-04 14:35:00
6:55 AM,59.0,57.2,94,30.25,2.0,South,13.8,23.0,N/A,,Drizzle,190,2012-11-04 14:55:00
7:15 AM,59.0,57.2,94,30.27,1.0,SSW,15.0,26.5,0.01,Rain,Rain,200,2012-11-04 15:15:00
7:35 AM,59.0,57.2,94,30.27,1.0,SSW,13.8,-,0.01,Rain,Light Rain,200,2012-11-04 15:35:00
7:55 AM,59.0,57.2,94,30.28,2.0,South,13.8,18.4,0.01,Rain,Light Rain,190,2012-11-04 15:55:00
8:15 AM,59.0,57.2,94,30.29,1.0,South,12.7,-,0.01,Rain,Rain,190,2012-11-04 16:15:00
8:35 AM,59.0,57.2,94,30.29,1.5,South,13.8,21.9,0.01,Rain,Rain,190,2012-11-04 16:35:00
8:55 AM,59.0,57.2,94,30.30,1.2,South,13.8,18.4,0.01,,Drizzle,190,2012-11-04 16:55:00
9:15 AM,59.0,59.0,100,30.30,1.5,South,15.0,20.7,N/A,,Light Drizzle,190,2012-11-04 17:15:00
9:35 AM,59.0,59.0,100,30.30,2.5,South,12.7,-,0.01,,Overcast,180,2012-11-04 17:35:00
9:55 AM,60.8,59.0,94,30.30,1.5,South,11.5,-,0.01,,Overcast,180,2012-11-04 17:55:00
10:15 AM,60.8,60.8,100,30.30,4.0,South,10.4,-,N/A,,Overcast,170,2012-11-04 18:15:00
10:35 AM,62.6,60.8,94,30.32,7.0,South,10.4,-,N/A,,Overcast,190,2012-11-04 18:35:00
10:55 AM,60.8,59.0,94,30.32,1.0,SW,9.2,-,N/A,,Overcast,220,2012-11-04 18:55:00
11:15 AM,60.8,60.8,100,30.32,1.8,SSW,6.9,-,N/A,,Overcast,210,2012-11-04 19:15:00
11:35 AM,62.6,60.8,94,30.32,3.0,SW,8.1,-,N/A,,Overcast,220,2012-11-04 19:35:00
11:55 AM,60.8,59.0,94,30.33,1.5,SSW,12.7,-,N/A,,Overcast,210,2012-11-04 19:55:00
12:15 PM,60.8,59.0,94,30.33,2.5,SSW,13.8,19.6,N/A,,Overcast,200,2012-11-04 20:15:00
12:35 PM,60.8,59.0,94,30.33,4.0,SSW,16.1,19.6,N/A,,Overcast,200,2012-11-04 20:35:00
12:55 PM,62.6,59.0,88,30.34,4.0,SSW,11.5,-,N/A,,Overcast,200,2012-11-04 20:55:00
1:15 PM,60.8,57.2,88,30.34,1.8,SSW,13.8,-,N/A,,Overcast,210,2012-11-04 21:15:00
1:35 PM,59.0,57.2,94,30.34,2.0,SSW,12.7,-,N/A,,Overcast,210,2012-11-04 21:35:00
1:55 PM,59.0,59.0,100,30.34,1.0,SSW,11.5,-,N/A,,Overcast,210,2012-11-04 21:55:00
2:15 PM,59.0,59.0,100,30.33,1.8,South,10.4,-,N/A,,Overcast,180,2012-11-04 22:15:00
2:35 PM,59.0,59.0,100,30.34,0.8,SSW,11.5,-,N/A,,Overcast,210,2012-11-04 22:35:00
2:55 PM,59.0,59.0,100,30.35,0.5,SSW,8.1,-,N/A,Fog,Fog,200,2012-11-04 22:55:00
3:15 PM,59.0,59.0,100,30.35,0.2,South,6.9,-,N/A,Fog,Fog,190,2012-11-04 23:15:00
3:35 PM,59.0,59.0,100,30.35,0.2,South,5.8,-,N/A,Fog,Fog,190,2012-11-04 23:35:00
3:55 PM,59.0,59.0,100,30.36,0.2,SSW,6.9,-,N/A,Fog,Fog,200,2012-11-04 23:55:00
4:15 PM,59.0,59.0,100,30.34,0.2,South,8.1,-,N/A,Fog,Fog,170,2012-11-05 00:15:00
4:35 PM,59.0,59.0,100,30.35,0.2,SSW,5.8,-,N/A,Fog,Fog,200,2012-11-05 00:35:00
4:55 PM,57.2,57.2,100,30.36,0.2,SW,5.8,-,N/A,Fog,Fog,230,2012-11-05 00:55:00
5:15 PM,57.2,55.4,94,30.37,0.2,SSW,5.8,-,N/A,Fog,Fog,200,2012-11-05 01:15:00
5:35 PM,57.2,55.4,94,30.37,0.5,South,4.6,-,N/A,Fog,Fog,180,2012-11-05 01:35:00
5:55 PM,57.2,57.2,100,30.36,0.8,SSE,5.8,-,N/A,,Overcast,160,2012-11-05 01:55:00
6:15 PM,57.2,57.2,100,30.35,7.0,SE,5.8,-,N/A,,Overcast,130,2012-11-05 02:15:00
6:35 PM,57.2,57.2,100,30.36,10.0,Calm,Calm,-,N/A,,Scattered Clouds,0,2012-11-05 02:35:00
6:55 PM,57.2,57.2,100,30.36,10.0,South,3.5,-,N/A,,Mostly Cloudy,170,2012-11-05 02:55:00
7:15 PM,57.2,57.2,100,30.36,10.0,Calm,Calm,-,N/A,,Overcast,0,2012-11-05 03:15:00
7:35 PM,59.0,59.0,100,30.37,10.0,Calm,Calm,-,N/A,,Overcast,0,2012-11-05 03:35:00
7:55 PM,59.0,59.0,100,30.37,10.0,Calm,Calm,-,N/A,,Overcast,0,2012-11-05 03:55:00
8:15 PM,59.0,59.0,100,30.37,5.0,SE,3.5,-,N/A,,Overcast,140,2012-11-05 04:15:00
8:35 PM,59.0,59.0,100,30.37,3.0,Calm,Calm,-,N/A,,Overcast,0,2012-11-05 04:35:00
8:55 PM,59.0,59.0,100,30.37,2.5,Calm,Calm,-,N/A,,Overcast,0,2012-11-05 04:55:00
9:15 PM,59.0,59.0,100,30.37,2.0,Calm,Calm,-,N/A,,Overcast,0,2012-11-05 05:15:00
9:35 PM,59.0,59.0,100,30.37,2.5,Calm,Calm,-,N/A,,Overcast,0,2012-11-05 05:35:00
9:55 PM,59.0,59.0,100,30.37,2.5,Calm,Calm,-,N/A,,Overcast,0,2012-11-05 05:55:00
10:15 PM,59.0,59.0,100,30.37,0.8,Calm,Calm,-,N/A,,Overcast,0,2012-11-05 06:15:00
10:35 PM,59.0,59.0,100,30.36,2.5,SE,8.1,-,N/A,,Overcast,140,2012-11-05 06:35:00
10:55 PM,59.0,59.0,100,30.36,10.0,ESE,4.6,-,N/A,,Overcast,120,2012-11-05 06:55:00